This demonstration page uses our WeatherBlox Daily Observations layout. Learn more.

Left ArrowRight Arrow

Hourly Observations for March 6, 2020

Temp ( °F °C ) Dew Point ( °F °C ) Humidity (%) Winds ( mph kmh ) Pressure ( in mb ) Visibility ( mi km ) Precip ( " mm )
12:53 am 00:53 Clear 42 5.6 28 -2.2 58 58 W 6 9 29.98 1015 10 16.0934 N/A
1:53 am 01:53 Cloudy 43 6.1 27 -2.8 53 53 W 6 9 29.98 1015 10 16.0934 N/A
2:53 am 02:53 Cloudy 42 5.6 28 -2.2 58 58 W 8 13 29.98 1015 10 16.0934 N/A
3:53 am 03:53 Cloudy 41 5 29 -1.7 62 62 WNW 9 15 29.98 1015 10 16.0934 0.001 0.001
4:53 am 04:53 Cloudy with Light Rain 39 3.9 31 -0.6 73 73 WNW 18 30 30 1016 10 16.0934 0.001 0.001
5:29 am 05:29 Cloudy with Light Rain 37 2.8 32 undefined 82 82 WNW 13 20 30.05 1017 10 16.0934 0.01 0.254
5:53 am 05:53 Cloudy with Light Rain 37 2.8 32 undefined 82 82 WNW 12 19 30.03 1017 10 16.0934 0.01 0.254
6:53 am 06:53 Cloudy with Light Rain 36 2.2 32 undefined 86 86 W 12 19 30.04 1017 10 16.0934 0.001 0.001
7:32 am 07:32 Cloudy 36 2.2 32 undefined 86 86 W 10 17 30.08 1019 10 16.0934 0.001 0.001
7:53 am 07:53 Cloudy with Light Rain 36 2.2 32 undefined 86 86 W 10 17 30.08 1019 10 16.0934 0.001 0.001
8:20 am 08:20 Cloudy with Light Rain 36 2.2 31 -0.6 82 82 W 12 19 30.11 1020 10 16.0934 0.001 0.001
8:53 am 08:53 Cloudy with Light Rain 36 2.2 31 -0.6 82 82 W 13 20 30.1 1019 10 16.0934 0.001 0.001
9:53 am 09:53 Cloudy 37 2.8 32 undefined 82 82 WNW 15 24 30.13 1020 10 16.0934 0.001 0.001
10:53 am 10:53 Cloudy with Light Snow 37 2.8 30 -1.1 76 76 WNW 15 24 30.17 1022 9 14.48406 0.001 0.001
11:53 am 11:53 Cloudy 37 2.8 29 -1.7 73 73 WNW 16 26 30.19 1023 9 14.48406 0.001 0.001
12:53 pm 12:53 Cloudy 38 3.3 28 -2.2 68 68 WNW 20 31 30.22 1024 10 16.0934 N/A
1:53 pm 13:53 Cloudy 37 2.8 29 -1.7 73 73 WNW 15 24 30.24 1024 10 16.0934 N/A
2:53 pm 14:53 Cloudy 38 3.3 30 -1.1 73 73 WNW 16 26 30.25 1025 10 16.0934 N/A
3:53 pm 15:53 Cloudy 38 3.3 30 -1.1 73 73 WNW 17 28 30.28 1026 10 16.0934 N/A
4:53 pm 16:53 Cloudy 38 3.3 30 -1.1 73 73 WNW 18 30 30.31 1027 10 16.0934 N/A
5:53 pm 17:53 Cloudy 38 3.3 30 -1.1 73 73 NW 15 24 30.35 1028 10 16.0934 N/A
6:00 pm 18:00 Cloudy 38 3.3 30 -1.1 73 73 NW 15 24 30.37 1028 10 16.0934 N/A
6:22 pm 18:22 Cloudy 38 3.3 29 -1.7 70 70 NW 16 26 30.38 1029 10 16.0934 N/A
6:53 pm 18:53 Cloudy 38 3.3 29 -1.7 70 70 NW 15 24 30.38 1029 10 16.0934 N/A
7:53 pm 19:53 Cloudy 38 3.3 25 -3.9 60 60 NNW 15 24 30.41 1030 10 16.0934 N/A
8:53 pm 20:53 Cloudy 37 2.8 27 -2.8 67 67 WNW 14 22 30.42 1030 10 16.0934 N/A
9:53 pm 21:53 Cloudy 35 1.7 27 -2.8 72 72 WNW 10 17 30.45 1031 10 16.0934 N/A
10:53 pm 22:53 Cloudy 35 1.7 27 -2.8 72 72 WNW 9 15 30.46 1032 10 16.0934 N/A
11:48 pm 23:48 Cloudy 36 2 27 -3 70 70 NW 9 15 30.48 1032 10 16.0934 N/A
11:53 pm 23:53 Cloudy 34 1.1 27 -2.8 76 76 NW 8 13 30.47 1032 10 16.0934 N/A

Powered by AerisWeather